Location: Clover
(42.5131°N, 114.6874°W)
Time: 09:19:17
(UTC+00:00)

Courier 1B - Pass Details

Date: 14 November 2024
Orbit: 962 x 1208 km, 28.3° (Epoch: 06 December)

Event Time Altitude Azimuth Distance (km) Brightness Sun altitude
Rises 02:23:07 0° 252° (WSW) 3,639 11.8 -23.2°
Reaches altitude 10° 02:27:32 10° 224° (SW) 2,713 10.4 -24.0°
Maximum altitude 02:30:05 12° 201° (SSW) 2,552 9.9 -24.4°
Drops below altitude 10° 02:32:41 10° 177° (S) 2,754 9.8 -24.9°
Enters shadow 02:35:10 - 160° (SSE) 3,224 10.0 -25.4°
